Friday, May 25, 2018, 11:51 AM CDT
Back to Local

KIGQ, Chicago, Lansing Municipal Airport

Location: Chicago Heights, IL, United States Lat: 41.54
Local Time: 11:51 AM CDT (16:51 GMT) Lon: -87.532
Time Zone: US/Central Elev: 616 ft

Show me the last for .
Show Coded

Time T Td Feel RH Dir Speed Gust Alt SLP Vis Weather Sky Remarks
2018-05-25 11:35 84 64 86 49 220° 7 - 29.93 - 10 CLR None
2018-05-25 11:15 84 64 86 50 230° 8 - 29.94 - 10 CLR None
2018-05-25 10:55 83 63 84 51 250° 7 - 29.93 - 10 CLR None
2018-05-25 10:35 82 64 84 53 220° 7 - 29.94 - 10 CLR None
2018-05-25 10:15 81 63 83 53 210° 10 - 29.94 - 10 CLR None
2018-05-25 09:55 80 62 82 54 220° 9 - 29.95 - 10 CLR None
2018-05-25 09:35 79 63 81 56 220° 7 - 29.96 - 10 CLR None
2018-05-25 09:15 78 62 80 57 220° 8 - 29.96 - 10 CLR None
2018-05-25 08:55 76 62 79 60 200° 9 - 29.97 - 10 CLR None
2018-05-25 08:35 75 62 78 62 210° 8 - 29.97 - 10 CLR None
2018-05-25 08:15 74 61 77 65 210° 7 - 29.97 - 10 CLR None
2018-05-25 07:55 72 61 76 67 210° 6 - 29.97 - 10 CLR None
2018-05-25 07:35 70 60 - 69 210° 6 - 29.97 - 10 CLR None
2018-05-25 07:15 68 59 - 72 190° 7 - 29.97 - 10 CLR None
2018-05-25 06:55 67 58 - 73 210° 5 - 29.97 - 10 CLR 6-hr Min Temp (7am): 59.9°F
6-hr Max Temp (7am): 67.1°F
2018-05-25 06:35 65 58 - 79 200° 3 - 29.97 - 10 CLR None
2018-05-25 06:15 63 55 - 76 180° 3 - 29.97 - 10 CLR None
2018-05-25 05:55 62 55 - 76 - Calm - 29.98 - 10 CLR None
2018-05-25 05:35 61 54 - 78 170° 3 - 29.98 - 10 CLR None
2018-05-25 05:15 61 54 - 77 200° 3 - 29.99 - 10 CLR None
2018-05-25 04:55 64 54 - 68 - Calm - 29.99 - 10 CLR None
2018-05-25 04:35 64 53 - 69 - Calm - 29.99 - 10 CLR None
2018-05-25 04:15 63 53 - 69 - Calm - 29.99 - 10 CLR None
2018-05-25 03:55 63 52 - 67 - Calm - 30.00 - 10 CLR None
2018-05-25 03:35 64 52 - 65 - Calm - 30.01 - 10 CLR None
2018-05-25 03:15 63 53 - 67 - Calm - 30.01 - 10 CLR None
2018-05-25 02:55 62 54 - 73 - Calm - 30.01 - 10 CLR None
2018-05-25 02:35 66 52 - 60 - Calm - 30.01 - 10 CLR None
2018-05-25 02:15 64 51 - 62 - Calm - 30.01 - 10 CLR None
2018-05-25 01:55 66 52 - 62 - Calm - 30.02 - 10 CLR None
2018-05-25 01:35 65 52 - 62 170° 5 - 30.02 - 10 CLR None
2018-05-25 01:15 66 52 - 62 180° 6 - 30.03 - 10 CLR None
2018-05-25 00:55 66 53 - 62 180° 5 - 30.04 - 10 CLR 6-hr Min Temp (1am): 64.9°F
6-hr Max Temp (1am): 81.0°F
24-hr Min Temp (1am): 52.5°F
24-hr Max Temp (1am): 84.0°F
2018-05-25 00:35 65 53 - 65 170° 5 - 30.04 - 10 CLR None
2018-05-25 00:15 65 55 - 68 170° 3 - 30.04 - 10 CLR None
2018-05-24 23:55 67 55 - 64 170° 5 - 30.04 - 10 CLR None
2018-05-24 23:35 67 54 - 62 - Calm - 30.04 - 10 CLR None
2018-05-24 23:15 67 56 - 69 - Calm - 30.04 - 10 CLR None
2018-05-24 22:55 71 56 76 58 160° 3 - 30.04 - 10 CLR None
2018-05-24 22:35 69 57 - 66 150° 5 - 30.04 - 10 CLR None
2018-05-24 22:15 71 58 76 63 140° 3 - 30.04 - 10 CLR None
2018-05-24 21:55 71 60 76 67 130° 5 - 30.04 - 10 CLR None
2018-05-24 21:35 71 59 76 65 100° 6 - 30.04 - 10 CLR None
2018-05-24 21:15 73 59 77 62 90° 3 - 30.04 - 10 CLR None
2018-05-24 20:55 74 59 77 58 80° 5 - 30.04 - 10 CLR None
2018-05-24 20:35 74 59 77 58 80° 5 - 30.04 - 10 CLR None
2018-05-24 20:15 76 59 78 54 80° 6 - 30.04 - 10 CLR None
2018-05-24 19:55 78 58 79 51 100° 5 - 30.04 - 10 CLR None
2018-05-24 19:35 79 58 80 48 130° 5 - 30.04 - 10 CLR None
2018-05-24 19:15 80 58 81 46 140° 6 - 30.04 - 10 CLR None
2018-05-24 18:55 81 58 82 45 140° 5 - 30.04 - 10 CLR 6-hr Min Temp (7pm): 81.0°F
6-hr Max Temp (7pm): 84.0°F
2018-05-24 18:35 82 60 83 46 - Calm - 30.04 - 10 CLR None
2018-05-24 18:15 83 59 84 43 170° 5 - 30.05 - 10 CLR None
2018-05-24 17:55 83 59 84 43 130° 6 - 30.06 - 10 CLR None
2018-05-24 17:35 83 59 84 44 130° 6 - 30.07 - 10 CLR None
2018-05-24 17:15 84 60 84 44 - Calm - 30.08 - 10 CLR None
2018-05-24 16:55 84 60 84 44 - Calm - 30.08 - 10 CLR None
2018-05-24 16:35 84 61 85 46 120° 5 - 30.09 - 10 CLR None
2018-05-24 16:15 84 60 84 45 140° 7 - 30.10 - 10 CLR None
2018-05-24 15:55 83 61 84 46 120° 5 - 30.11 - 10 CLR None
2018-05-24 15:35 83 60 84 46 120° 5 - 30.11 - 10 CLR None
2018-05-24 15:15 83 60 84 45 150° 6 - 30.12 - 10 CLR None
2018-05-24 14:55 83 60 83 45 - Calm - 30.13 - 10 CLR None
2018-05-24 14:35 83 59 83 44 100° 3 - 30.13 - 10 CLR None
2018-05-24 14:15 82 59 83 46 200° 3 - 30.13 - 10 CLR None
2018-05-24 13:55 82 59 82 45 130° 3 - 30.13 - 10 CLR None
2018-05-24 13:35 82 61 83 48 150° 6 - 30.15 - 10 CLR None
2018-05-24 13:15 81 59 82 47 - Calm - 30.15 - 10 CLR None
2018-05-24 12:55 81 61 82 50 140° 6 - 30.16 - 10 CLR 6-hr Min Temp (1pm): 60.1°F
6-hr Max Temp (1pm): 81.0°F
2018-05-24 12:35 81 60 82 50 210° 3 - 30.17 - 10 CLR None
2018-05-24 12:15 80 59 81 49 190° 5 9 30.18 - 10 CLR None
2018-05-24 11:55 80 59 81 49 210° 5 - 30.18 - 10 CLR None

Support USWX by starting your Amazon purchase here.